Regional Weather Roundup
Issued by NWS Cleveland, OH

Home | Current Version | Previous Version | Graphics & Text | Print | Product List | Glossary On
Versions: 1 2 3 4 5 6 7 8 9 10 11 12 13 14 15 16 17 18 19 20 21 22 23 24 25 26 27 28 29 30 31 32 33 34 35 36 37 38 39 40 41 42 43 44 45 46 47 48 49 50
000
ASUS41 KCLE 091610
RWRCLE
OHIO REGIONAL WEATHER ROUNDUP
NATIONAL WEATHER SERVICE WILMINGTON, OH
1100 AM EST FRI DEC 09 2016

NOTE: "FAIR" INDICATES FEW OR NO CLOUDS BELOW 12,000 FEET WITH NO
SIGNIFICANT WEATHER AND/OR OBSTRUCTIONS TO VISIBILITY.

OHZ001>008-015>018-024>027-034-035-043-044-091700-
   NORTHWEST OHIO

CITY           SKY/WX    TMP DP  RH WIND       PRES   REMARKS
DEFIANCE       LGT SNOW  27  21  78 VRB3      30.45S
FINDLAY        LGT SNOW  26  18  71 W16       30.44R WCI  14
TOLEDO EXPRESS CLOUDY    27  24  89 W13       30.42R WCI  16
TOLEDO EXEC    CLOUDY    29  24  82 W10       30.43S WCI  20
LIMA           FLURRIES  23  20  88 W14       30.45S WCI  11
$$

OHZ009>014-019>023-028>033-038-089-091700-
   NORTHEAST OHIO

CITY           SKY/WX    TMP DP  RH WIND       PRES   REMARKS
CLE-HOPKINS    CLOUDY    27  18  69 SW17      30.42R WCI  14
CLE-LAKEFRONT  FLURRIES  28  21  75 SW21      30.38R WCI  15
CUY CO. ARPT   LGT SNOW  27  23  86 W14G26    30.36R VSB 1   WCI  15
LORAIN-ELYRIA  LGT SNOW  24  18  77 W14       30.41R WCI  12
ASHTABULA      CLOUDY    26  23  88 SW10      30.33R FOG     WCI  16
AKRON-CANTON   FLURRIES  24  18  77 W16       30.37S WCI  11
WOOSTER        LGT SNOW  24  18  77 W17       30.40R WCI  11
MANSFIELD      LGT SNOW  22  18  85 W13       30.40R FOG     WCI  10
YOUNGSTOWN     FLURRIES  25  19  78 SW14G21   30.34R WCI  13
$$

OHZ042-051>053-060>062-070>072-077>081-091700-
  SOUTHWEST OHIO

CITY           SKY/WX    TMP DP  RH WIND       PRES   REMARKS
CINC-COVINGTON LGT SNOW  22  14  71 W12       30.55R WCI  10
CINC-LUNKEN    LGT SNOW  25  15  66 W13       30.60R WCI  14
HAMILTON       CLOUDY    26  16  65 W12       30.57R WCI  16
DAYTON         PTSUNNY   24  16  71 W15       30.50R WCI  11
WRIGHT-PAT AFB PTSUNNY   24  16  71 SW10      30.51R WCI  13
DAYTON GENERAL CLOUDY    24  14  65 W12       30.51S WCI  13
WILMINGTON     CLOUDY    22  14  71 W12       30.51R WCI  10
$$

OHZ036-037-039>041-045>050-054>059-063>069-073>076-082>088-091700-
  CENTRAL AND SOUTHEAST OHIO

CITY           SKY/WX    TMP DP  RH WIND       PRES   REMARKS
COLUMBUS       PTSUNNY   28  18  66 W12       30.49R WCI  18
OSU AIRPORT    CLOUDY    24  17  74 W12G21    30.48R WCI  13
BOLTON FIELD   CLOUDY    25  18  74 W10       30.50R WCI  15
RICKENBACK AFB   N/A     25  16  69 W14       30.50S WCI  13
NEWARK         PTSUNNY   26  16  65 W14       30.46R WCI  14
MARION         CLOUDY    23  18  81 W13       30.44R WCI  11
LANCASTER      CLOUDY    24  16  71 W13G18    30.50R WCI  12
ZANESVILLE     CLOUDY    26  16  65 W10       30.46R WCI  16
NEW PHILLY     CLOUDY    24  19  81 W8        30.44R WCI  15
$$




USA.gov is the U.S. government's official web portal to all federal, state and local government web resources and services.